Weather History for Peachtree City, GA

Change the Weather History Date:

Monday, November 19, 2012

  Actual Average Record
Temperature  
Mean Temperature 46 °F 52 °F  
Max Temperature 60 °F 64 °F 72 °F (2007)
Min Temperature 33 °F 39 °F 15 °F (2014)
Degree Days  
Heating Degree Days 18 13  
Month to date heating degree days 208  
Since 1 July heating degree days 374  
Cooling Degree Days 0 0  
Month to date cooling degree days 2  
Year to date cooling degree days 1650  
Moisture  
Dew Point 46 °F    
Average Humidity 84    
Maximum Humidity 96    
Minimum Humidity 67    
Precipitation  
Precipitation 0.00 in 0.13 in 1.55 in (2003)
Month to date precipitation 2.39  
Year to date precipitation 44.37  
Sea Level Pressure  
Sea Level Pressure 30.27 in    
Wind  
Wind Speed 2 mph (North)    
Max Wind Speed 8 mph    
Max Gust Speed -    
Visibility 8 miles    
Events      
T = Trace of Precipitation, MM = Missing Value Source: NWS Daily Summary

Daily Weather History Graph

Daily Weather History Graph

Search for Another Location

Airport:

Trip Planner

Search our weather history database for the weather conditions in past years. The results will help you decide how hot, cold, wet, or windy it might be!

Date:

Astronomy

Nov. 19, 2012 Rise Set
Actual Time 7:13 AM EST 5:33 PM EST
Civil Twilight 6:47 AM EST 6:00 PM EST
Nautical Twilight 6:16 AM EST 6:30 PM EST
Astronomical Twilight 5:47 AM EST 6:59 PM EST
Moon 12:22 PM EST (11/19) 11:51 PM EST (11/19)
Length of Visible Light 11h 13m
Length of Day
10h 19m
Waxing Crescent, 40% of the Moon is Illuminated
Nov 19
Waxing Crescent
Nov 20
First Quarter
Nov 28
Full
Dec 6
Last Quarter
Dec 13
New

Hourly Weather History & Observations

Time (EST) Temp. Dew Point Humidity Pressure Visibility Wind Dir Wind Speed Gust Speed Precip Events Conditions
12:53 AM 37.9 °F 36.0 °F 93% 30.34 in 10.0 mi Calm Calm - N/A   Clear
1:53 AM 37.0 °F 35.1 °F 93% 30.33 in 10.0 mi Calm Calm - N/A   Clear
2:53 AM 36.0 °F 34.0 °F 93% 30.32 in 9.0 mi Calm Calm - N/A   Clear
3:53 AM 35.1 °F 33.1 °F 92% 30.31 in 8.0 mi Calm Calm - N/A   Clear
4:53 AM 35.1 °F 33.1 °F 92% 30.31 in 9.0 mi Calm Calm - N/A   Clear
5:53 AM 34.0 °F 32.0 °F 92% 30.31 in 10.0 mi Calm Calm - N/A   Clear
6:53 AM 33.1 °F 32.0 °F 96% 30.31 in 9.0 mi Calm Calm - N/A   Clear
7:53 AM 35.1 °F 33.1 °F 92% 30.34 in 7.0 mi Calm Calm - N/A   Partly Cloudy
8:07 AM 37.4 °F 35.6 °F 93% 30.32 in 7.0 mi Calm Calm - N/A   Mostly Cloudy
8:53 AM 44.1 °F 41.0 °F 89% 30.32 in 8.0 mi Calm Calm - N/A   Scattered Clouds
9:53 AM 54.0 °F 44.1 °F 69% 30.32 in 10.0 mi NE 5.8 mph - N/A   Overcast
10:53 AM 57.0 °F 46.0 °F 67% 30.32 in 10.0 mi NNE 6.9 mph - N/A   Overcast
11:53 AM 57.9 °F 48.9 °F 72% 30.30 in 10.0 mi North 6.9 mph - N/A   Overcast
12:45 PM 55.4 °F 51.8 °F 88% 30.28 in 6.0 mi North 5.8 mph - N/A   Haze
12:53 PM 55.9 °F 51.1 °F 84% 30.28 in 5.0 mi North 4.6 mph - N/A   Haze
1:08 PM 55.4 °F 51.8 °F 88% 30.26 in 6.0 mi North 5.8 mph - N/A   Haze
1:17 PM 55.4 °F 51.8 °F 88% 30.26 in 4.0 mi North 6.9 mph - N/A   Overcast
1:22 PM 55.4 °F 51.8 °F 88% 30.26 in 2.5 mi North 8.1 mph - N/A   Haze
1:33 PM 55.4 °F 51.8 °F 88% 30.25 in 3.0 mi Variable 5.8 mph - N/A   Overcast
1:53 PM 57.9 °F 51.1 °F 78% 30.25 in 9.0 mi North 6.9 mph - N/A   Overcast
2:04 PM 57.2 °F 51.8 °F 82% 30.24 in 10.0 mi North 5.8 mph - N/A   Overcast
2:39 PM 59.0 °F 51.8 °F 77% 30.23 in 10.0 mi NNE 3.5 mph - N/A   Overcast
2:53 PM 57.9 °F 52.0 °F 81% 30.24 in 10.0 mi North 5.8 mph - N/A   Overcast
3:11 PM 59.0 °F 51.8 °F 77% 30.22 in 10.0 mi NNE 3.5 mph - N/A   Overcast
3:53 PM 60.1 °F 51.1 °F 72% 30.23 in 10.0 mi NNE 5.8 mph - N/A   Overcast
4:53 PM 60.1 °F 51.1 °F 72% 30.24 in 10.0 mi North 3.5 mph - N/A   Overcast
5:53 PM 59.0 °F 51.1 °F 75% 30.23 in 10.0 mi Calm Calm - N/A   Overcast
6:53 PM 55.9 °F 51.1 °F 84% 30.22 in 10.0 mi Calm Calm - N/A   Overcast
7:53 PM 55.9 °F 51.1 °F 84% 30.22 in 10.0 mi Calm Calm - N/A   Overcast
8:53 PM 55.0 °F 51.1 °F 86% 30.22 in 10.0 mi Calm Calm - N/A   Overcast
10:53 PM 55.0 °F 51.1 °F 86% 30.21 in 10.0 mi Calm Calm - N/A   Overcast
11:53 PM 55.0 °F 52.0 °F 89% 30.20 in 10.0 mi Calm Calm - N/A   Overcast